When you browse on this site, cookies collect data to enhance your experience and personalize the content and advertising you see.
Visit our Privacy Policy to learn more. By continuing to use the site, you agree to this use of cookies and data.
  • In Romania
  • List of Countries
  • For 7 days
  • Water Temperature
  • Satellite Maps
  • Weather Map
  • Weather Widgets
  • user-avatar
    Login

    Hourly Weather Saint-Etienne-du-Rouvray

    Today, 25 June, Tuesday

    Time Temperature Precipitation Wind Pressure Humidity
    00:00 +18°C° 0 mm 4 mps 759 mmHg 94%
    01:00 +18°C° 0.5 mm 3 mps 759 mmHg 95%
    02:00 +18°C° 0.5 mm 3 mps 759 mmHg 96%
    03:00 +18°C° 0.5 mm 2 mps 758 mmHg 97%
    04:00 +19°C° 0 mm 2 mps 758 mmHg 96%
    05:00 +20°C° 0 mm 1 mps 759 mmHg 96%
    06:00 +20°C° 0 mm 1 mps 759 mmHg 94%
    07:00 +20°C° 0 mm 2 mps 759 mmHg 92%
    08:00 +23°C° 0 mm 2 mps 759 mmHg 90%
    09:00 +24°C° 0 mm 2 mps 759 mmHg 88%
    10:00 +25°C° 0 mm 2 mps 760 mmHg 85%
    11:00 +26°C° 0 mm 3 mps 760 mmHg 81%
    12:00 +27°C° 0 mm 4 mps 761 mmHg 78%
    13:00 +27°C° 0 mm 3 mps 761 mmHg 78%
    14:00 +27°C° 0 mm 3 mps 761 mmHg 78%
    15:00 +26°C° 0 mm 3 mps 762 mmHg 78%
    16:00 +26°C° 0 mm 3 mps 762 mmHg 80%
    17:00 +25°C° 0 mm 3 mps 762 mmHg 83%
    18:00 +25°C° 0 mm 3 mps 763 mmHg 85%
    19:00 +22°C° 0 mm 3 mps 763 mmHg 88%
    20:00 +21°C° 0 mm 2 mps 763 mmHg 92%
    21:00 +19°C° 0 mm 2 mps 764 mmHg 95%
    22:00 +19°C° 0 mm 2 mps 764 mmHg 95%
    23:00 +18°C° 0 mm 2 mps 764 mmHg 94%

    Tomorrow, 26 June, Wednesday

    Time Temperature Precipitation Wind Pressure Humidity
    00:00 +18°C° 0 mm 2 mps 764 mmHg 94%
    01:00 +18°C° 0 mm 2 mps 764 mmHg 94%
    02:00 +17°C° 0 mm 2 mps 764 mmHg 95%
    03:00 +17°C° 0 mm 2 mps 764 mmHg 95%
    04:00 +18°C° 0 mm 3 mps 764 mmHg 93%
    05:00 +19°C° 0 mm 3 mps 764 mmHg 92%
    06:00 +19°C° 0 mm 4 mps 765 mmHg 90%
    07:00 +21°C° 0 mm 4 mps 765 mmHg 88%
    08:00 +22°C° 0 mm 4 mps 765 mmHg 85%
    09:00 +25°C° 0 mm 5 mps 765 mmHg 82%
    10:00 +26°C° 0 mm 5 mps 765 mmHg 80%
    11:00 +27°C° 0 mm 5 mps 765 mmHg 77%
    12:00 +28°C° 0 mm 6 mps 765 mmHg 75%
    13:00 +29°C° 0 mm 6 mps 764 mmHg 75%
    14:00 +29°C° 0 mm 6 mps 764 mmHg 75%
    15:00 +29°C° 0 mm 6 mps 764 mmHg 75%
    16:00 +28°C° 0 mm 6 mps 764 mmHg 77%
    17:00 +28°C° 0 mm 6 mps 764 mmHg 79%
    18:00 +27°C° 0 mm 6 mps 764 mmHg 82%
    19:00 +24°C° 0 mm 6 mps 764 mmHg 83%
    20:00 +23°C° 0 mm 6 mps 765 mmHg 85%
    21:00 +21°C° 0 mm 6 mps 765 mmHg 86%
    22:00 +20°C° 0 mm 6 mps 765 mmHg 87%
    23:00 +19°C° 0 mm 5 mps 765 mmHg 88%

    Day after tomorrow, 27 June, Thursday

    Time Temperature Precipitation Wind Pressure Humidity
    00:00 +19°C° 0 mm 5 mps 765 mmHg 89%
    01:00 +19°C° 0 mm 5 mps 765 mmHg 89%
    02:00 +17°C° 0 mm 5 mps 765 mmHg 89%
    03:00 +17°C° 0 mm 5 mps 765 mmHg 89%
    04:00 +19°C° 0 mm 5 mps 765 mmHg 89%
    05:00 +19°C° 0 mm 6 mps 765 mmHg 88%
    06:00 +19°C° 0 mm 6 mps 765 mmHg 87%
    07:00 +20°C° 0 mm 6 mps 765 mmHg 83%
    08:00 +21°C° 0 mm 7 mps 765 mmHg 80%
    09:00 +23°C° 0 mm 7 mps 765 mmHg 76%
    10:00 +24°C° 0 mm 7 mps 765 mmHg 73%
    11:00 +26°C° 0 mm 7 mps 765 mmHg 71%
    12:00 +27°C° 0 mm 6 mps 765 mmHg 69%
    13:00 +27°C° 0 mm 7 mps 765 mmHg 69%
    14:00 +27°C° 0 mm 7 mps 765 mmHg 69%
    15:00 +28°C° 0 mm 7 mps 765 mmHg 69%
    16:00 +27°C° 0 mm 7 mps 765 mmHg 70%
    17:00 +24°C° 0 mm 6 mps 765 mmHg 71%
    18:00 +23°C° 0 mm 6 mps 764 mmHg 73%
    19:00 +22°C° 0 mm 6 mps 765 mmHg 70%
    20:00 +21°C° 0 mm 6 mps 765 mmHg 67%
    21:00 +20°C° 0 mm 6 mps 765 mmHg 64%
    22:00 +20°C° 0 mm 6 mps 765 mmHg 67%
    23:00 +19°C° 0 mm 6 mps 765 mmHg 71%

    28 June, Friday

    Time Temperature Precipitation Wind Pressure Humidity
    00:00 +19°C° 0 mm 6 mps 765 mmHg 74%
    01:00 +17°C° 0 mm 5 mps 765 mmHg 78%
    02:00 +16°C° 0 mm 5 mps 765 mmHg 81%
    03:00 +17°C° 0 mm 4 mps 765 mmHg 85%
    04:00 +16°C° 0 mm 5 mps 764 mmHg 85%
    05:00 +16°C° 0 mm 5 mps 764 mmHg 84%
    06:00 +16°C° 0 mm 6 mps 764 mmHg 84%
    07:00 +19°C° 0 mm 6 mps 764 mmHg 79%
    08:00 +21°C° 0 mm 6 mps 764 mmHg 75%
    09:00 +22°C° 0 mm 5 mps 764 mmHg 71%
    10:00 +25°C° 0 mm 5 mps 764 mmHg 68%
    11:00 +26°C° 0 mm 6 mps 764 mmHg 65%
    12:00 +27°C° 0 mm 6 mps 764 mmHg 62%
    13:00 +27°C° 0 mm 6 mps 763 mmHg 63%
    14:00 +28°C° 0 mm 6 mps 763 mmHg 63%
    15:00 +28°C° 0 mm 6 mps 763 mmHg 63%
    16:00 +27°C° 0 mm 5 mps 762 mmHg 67%
    17:00 +26°C° 0 mm 5 mps 762 mmHg 71%
    18:00 +26°C° 0 mm 4 mps 762 mmHg 75%
    19:00 +23°C° 0 mm 4 mps 762 mmHg 78%
    20:00 +22°C° 0 mm 4 mps 762 mmHg 81%
    21:00 +20°C° 0 mm 4 mps 762 mmHg 84%
    22:00 +20°C° 0 mm 4 mps 762 mmHg 84%
    23:00 +19°C° 0 mm 4 mps 762 mmHg 84%

    29 June, Saturday

    Time Temperature Precipitation Wind Pressure Humidity
    00:00 +18°C° 0 mm 4 mps 762 mmHg 85%
    01:00 +18°C° 0 mm 4 mps 761 mmHg 87%
    02:00 +17°C° 0 mm 3 mps 761 mmHg 89%
    03:00 +17°C° 0 mm 3 mps 761 mmHg 91%
    04:00 +18°C° 0 mm 3 mps 761 mmHg 87%
    05:00 +19°C° 0 mm 3 mps 760 mmHg 84%
    06:00 +19°C° 0 mm 3 mps 760 mmHg 80%
    07:00 +21°C° 0 mm 3 mps 760 mmHg 76%
    08:00 +24°C° 0 mm 3 mps 760 mmHg 72%
    09:00 +25°C° 0 mm 3 mps 760 mmHg 68%
    10:00 +27°C° 0 mm 3 mps 760 mmHg 65%
    11:00 +28°C° 0 mm 3 mps 759 mmHg 62%
    12:00 +29°C° 0 mm 4 mps 759 mmHg 59%
    13:00 +30°C° 0 mm 3 mps 758 mmHg 58%
    14:00 +31°C° 0 mm 3 mps 758 mmHg 56%
    15:00 +31°C° 0 mm 3 mps 758 mmHg 55%
    16:00 +31°C° 0 mm 3 mps 758 mmHg 60%
    17:00 +30°C° 0 mm 2 mps 757 mmHg 64%
    18:00 +30°C° 0 mm 2 mps 757 mmHg 69%
    19:00 +28°C° 0 mm 2 mps 757 mmHg 75%
    20:00 +26°C° 0 mm 2 mps 757 mmHg 80%
    21:00 +24°C° 0 mm 2 mps 758 mmHg 85%
    22:00 +23°C° 0 mm 2 mps 758 mmHg 88%
    23:00 +21°C° 0 mm 3 mps 758 mmHg 91%

    30 June, Sunday

    Time Temperature Precipitation Wind Pressure Humidity
    00:00 +19°C° 0 mm 4 mps 758 mmHg 94%
    01:00 +19°C° 0 mm 4 mps 758 mmHg 92%
    02:00 +19°C° 0 mm 4 mps 758 mmHg 90%
    03:00 +18°C° 0 mm 4 mps 758 mmHg 89%
    04:00 +18°C° 0 mm 4 mps 758 mmHg 88%
    05:00 +18°C° 0 mm 4 mps 759 mmHg 87%
    06:00 +18°C° 0 mm 4 mps 759 mmHg 86%
    07:00 +19°C° 0 mm 4 mps 760 mmHg 80%
    08:00 +20°C° 0 mm 4 mps 760 mmHg 74%
    09:00 +21°C° 0 mm 4 mps 760 mmHg 68%
    10:00 +22°C° 0 mm 4 mps 761 mmHg 66%
    11:00 +23°C° 0 mm 4 mps 761 mmHg 63%
    12:00 +25°C° 0 mm 4 mps 761 mmHg 61%
    13:00 +25°C° 0 mm 4 mps 761 mmHg 62%
    14:00 +25°C° 0 mm 4 mps 761 mmHg 62%
    15:00 +25°C° 0 mm 4 mps 761 mmHg 63%
    16:00 +23°C° 0 mm 4 mps 761 mmHg 67%
    17:00 +22°C° 0 mm 4 mps 761 mmHg 72%
    18:00 +21°C° 0 mm 3 mps 761 mmHg 76%
    19:00 +19°C° 0 mm 3 mps 761 mmHg 81%
    20:00 +17°C° 0 mm 2 mps 761 mmHg 85%
    21:00 +16°C° 0 mm 1 mps 761 mmHg 90%
    22:00 +15°C° 0 mm 1 mps 761 mmHg 90%
    23:00 +15°C° 0 mm 1 mps 762 mmHg 90%
    Show more